Location: Mentone
(34.5413°N, 85.5351°W)
Time: 02:55:45
(UTC-05:00)

Cosmos 2150 Rocket - Visible Passes

Search period start: 17 August 2017 00:00
Search period end: 27 August 2017 00:00
Orbit: 750 x 807 km, 74.0° (Epoch: 16 August)

Date Brightness Start Highest point End Pass type
(mag) Time Alt. Az. Time Alt. Az. Time Alt. Az.
17 Aug 6.9 01:07:06 10° NE 01:07:09 10° NE 01:07:09 10° NE visible
17 Aug 6.1 02:46:11 10° NNW 02:47:35 19° NNW 02:47:35 19° NNW visible
18 Aug 6.3 02:12:23 10° N 02:13:42 18° N 02:13:42 18° N visible
19 Aug 6.6 01:38:48 10° N 01:39:54 16° N 01:39:54 16° N visible
20 Aug 6.8 01:05:31 10° NNE 01:06:10 13° NNE 01:06:10 13° NNE visible
22 Aug 6.9 01:39:11 10° NNW 01:39:17 11° NNW 01:39:17 11° NNW visible
23 Aug 6.9 01:05:29 10° N 01:05:41 11° N 01:05:41 11° N visible
24 Aug 7.0 00:32:02 10° N 00:32:07 10° N 00:32:07 10° N visible
